Starlink 1327

operational
NORAD ID: 45555 Int'l Des: 2020-025 Owner: SPXS Country: US Constellation: starlink
LEOCIRCULARSTARLINK_TYPE

关于 Starlink 1327

正在加载描述...

实时位置

正在加载3D地球...

即将过境

高度历史

Altitude vs Time

uPlot chart will show altitude changes over time

两行轨道根数

1 45555U 20025AA 25350.00648853 -.00002315 00000-0 -13655-3 0 9998
2 45555 53.0552 102.2872 0001394 91.0450 269.0699 15.06398605312756
Epoch: Dec 16, 2025 • Age: 25 hours

当前状态

高度 547.0 km
速度 7.59 km/s
星下点 14.35°N, 169.4°E
发射日期 Apr 22, 2020
运行时间 5.6 years
类型 internet

技术详情

分类 Payload
质量 260.00 kg
干质量 248.00 kg
总质量 260.00 kg
长度 0.20 m
直径 2.80 m
跨度 9.00 m
形状 Box + pan
制造商 SPXS
平台类型 Starlink
阶段状态 In Orbit
所有者/国家 SPXS/US

大型星座

Loading constellations...